UAE205 SKRG-CYYZ

Flight info

Callsign UAE205
Flight time N/A
Altitude 35000
Route LLIX2A LATIS DCT BUTAL UP778 CTG DCT JAZZI DCT GARIC Q129 PYTON DCT WOZEE LINNG3
Aircraft A388/J-SADE2E3FGHIJ3J4J5M1RWXY/LB1D1

Departure

Time 2026-04-23 19:00
Airport Jose Maria Córdova International Airport (SKRG)

Arrival

Time N/A
Airport Toronto Pearson International Airport (CYYZ)
Time Latitude Longitude Altitude Speed Heading
2026-04-23 18:44 6.17323 -75.42802 7040 ft 0 kts 201°
2026-04-23 18:52 6.17332 -75.42799 7040 ft 2 kts 201°
2026-04-23 18:52 6.17346 -75.42794 7040 ft 2 kts 201°
2026-04-23 18:52 6.17355 -75.42790 7040 ft 2 kts 200°
2026-04-23 18:53 6.17370 -75.42787 7040 ft 2 kts 168°
2026-04-23 18:53 6.17384 -75.42792 7040 ft 2 kts 138°
2026-04-23 18:53 6.17394 -75.42802 7040 ft 1 kts 113°
2026-04-23 18:53 6.17397 -75.42807 7040 ft 1 kts 111°
2026-04-23 18:54 6.17397 -75.42808 7040 ft 0 kts 111°
2026-04-23 18:55 6.17392 -75.42795 7040 ft 4 kts 112°
2026-04-23 18:55 6.17374 -75.42759 7040 ft 7 kts 120°
2026-04-23 18:56 6.17353 -75.42722 7040 ft 11 kts 120°
2026-04-23 18:56 6.17354 -75.42628 7040 ft 13 kts 46°
2026-04-23 18:56 6.17441 -75.42568 7040 ft 17 kts 29°
2026-04-23 18:56 6.17548 -75.42510 7040 ft 18 kts 23°
2026-04-23 18:57 6.17667 -75.42489 7040 ft 17 kts
2026-04-23 18:57 6.17788 -75.42490 7040 ft 17 kts 360°
2026-04-23 18:57 6.17908 -75.42490 7040 ft 17 kts 360°
2026-04-23 18:57 6.18007 -75.42467 7040 ft 13 kts 55°
2026-04-23 18:58 6.18017 -75.42377 7040 ft 13 kts 103°
2026-04-23 18:58 6.17964 -75.42324 7040 ft 9 kts 173°
2026-04-23 18:58 6.17940 -75.42324 7040 ft 0 kts 180°
2026-04-23 18:58 6.17939 -75.42324 7040 ft 0 kts 180°
2026-04-23 18:59 6.17834 -75.42325 7040 ft 39 kts 181°
2026-04-23 19:00 6.17386 -75.42321 7040 ft 90 kts 180°
2026-04-23 19:00 6.16588 -75.42316 7040 ft 140 kts 180°
2026-04-23 19:00 6.15450 -75.42310 7095 ft 184 kts 180°
2026-04-23 19:00 6.14123 -75.42291 7568 ft 197 kts 180°
2026-04-23 19:01 6.12725 -75.42283 8087 ft 209 kts 181°
2026-04-23 19:01 6.11216 -75.42260 8483 ft 229 kts 175°
2026-04-23 19:01 6.09637 -75.41901 8937 ft 239 kts 158°
2026-04-23 19:01 6.08163 -75.41085 9413 ft 243 kts 143°
2026-04-23 19:02 6.07292 -75.40329 9755 ft 255 kts 134°
2026-04-23 19:02 6.05896 -75.38337 10521 ft 278 kts 114°
2026-04-23 19:02 6.05317 -75.36427 11228 ft 297 kts 98°
2026-04-23 19:02 6.05463 -75.34347 11891 ft 308 kts 69°
2026-04-23 19:03 6.06464 -75.32454 12652 ft 315 kts 56°
2026-04-23 19:03 6.07816 -75.30661 13370 ft 335 kts 50°
2026-04-23 19:03 6.09348 -75.28819 14044 ft 357 kts 46°
2026-04-23 19:03 6.11368 -75.27294 14704 ft 378 kts 23°
2026-04-23 19:04 6.13940 -75.26549 15426 ft 400 kts
2026-04-23 19:04 6.16792 -75.26237 16116 ft 426 kts
2026-04-23 19:04 6.19784 -75.26058 16776 ft 439 kts
2026-04-23 19:04 6.22813 -75.26332 17372 ft 443 kts 345°
2026-04-23 19:05 6.25749 -75.27234 18032 ft 447 kts 339°
2026-04-23 19:05 6.28613 -75.28434 18621 ft 451 kts 335°
2026-04-23 19:05 6.29958 -75.29010 18855 ft 453 kts 336°
2026-04-23 19:05 6.31293 -75.29562 19084 ft 455 kts 337°
2026-04-23 19:06 6.34229 -75.30784 19589 ft 458 kts 336°
2026-04-23 19:06 6.37161 -75.32013 20094 ft 461 kts 336°
2026-04-23 19:06 6.40105 -75.33243 20712 ft 462 kts 336°
2026-04-23 19:06 6.43067 -75.34481 21337 ft 465 kts 337°
2026-04-23 19:07 6.46144 -75.35445 21944 ft 469 kts 346°
2026-04-23 19:07 6.49357 -75.35964 22571 ft 474 kts 355°
2026-04-23 19:07 6.52640 -75.36110 23132 ft 478 kts 356°
2026-04-23 19:07 6.55975 -75.36323 23636 ft 482 kts 355°
2026-04-23 19:08 6.59306 -75.36597 24138 ft 485 kts 354°
2026-04-23 19:08 6.62656 -75.36895 24640 ft 489 kts 354°
2026-04-23 19:08 6.66041 -75.37188 25142 ft 493 kts 354°
2026-04-23 19:08 6.69450 -75.37486 25635 ft 497 kts 354°
2026-04-23 19:09 6.72894 -75.37787 26087 ft 501 kts 354°
2026-04-23 19:09 6.76365 -75.38089 26541 ft 505 kts 355°
2026-04-23 19:09 6.79875 -75.38395 26996 ft 508 kts 355°
2026-04-23 19:09 6.83386 -75.38701 27446 ft 511 kts 355°
2026-04-23 19:10 6.86949 -75.39012 27846 ft 523 kts 355°
2026-04-23 19:10 6.90581 -75.39329 28238 ft 533 kts 355°
2026-04-23 19:10 6.94264 -75.39650 28629 ft 535 kts 355°
2026-04-23 19:10 6.97968 -75.39973 29012 ft 541 kts 355°
2026-04-23 19:11 7.01703 -75.40299 29392 ft 543 kts 355°
2026-04-23 19:11 7.05467 -75.40628 29767 ft 543 kts 355°
2026-04-23 19:11 7.09225 -75.40956 30065 ft 548 kts 355°
2026-04-23 19:11 7.13015 -75.41287 30313 ft 548 kts 355°
2026-04-23 19:12 7.15532 -75.41506 30477 ft 548 kts 355°
2026-04-23 19:12 7.20584 -75.41948 30804 ft 548 kts 355°
2026-04-23 19:12 7.24361 -75.42278 31007 ft 548 kts 355°
2026-04-23 19:12 7.28136 -75.42608 31202 ft 548 kts 355°
2026-04-23 19:13 7.31931 -75.42939 31399 ft 547 kts 355°
2026-04-23 19:13 7.35699 -75.43269 31596 ft 547 kts 355°
2026-04-23 19:13 7.39464 -75.43598 31791 ft 547 kts 355°
2026-04-23 19:13 7.43227 -75.43927 31988 ft 546 kts 355°
2026-04-23 19:14 7.46987 -75.44256 32185 ft 546 kts 355°
2026-04-23 19:14 7.50748 -75.44585 32381 ft 546 kts 355°
2026-04-23 19:14 7.54511 -75.44914 32579 ft 545 kts 355°
2026-04-23 19:14 7.58292 -75.45245 32756 ft 546 kts 355°
2026-04-23 19:15 7.62052 -75.45574 32878 ft 545 kts 355°
2026-04-23 19:15 7.65804 -75.45903 33001 ft 545 kts 355°
2026-04-23 19:15 7.69557 -75.46232 33126 ft 545 kts 355°
2026-04-23 19:15 7.73312 -75.46560 33249 ft 545 kts 355°
2026-04-23 19:16 7.77065 -75.46889 33373 ft 545 kts 355°
2026-04-23 19:16 7.80816 -75.47218 33498 ft 544 kts 355°
2026-04-23 19:16 7.84595 -75.47549 33623 ft 545 kts 355°
2026-04-23 19:17 7.92095 -75.48206 33874 ft 544 kts 355°
2026-04-23 19:17 7.95844 -75.48535 34000 ft 544 kts 355°
2026-04-23 19:17 7.99592 -75.48863 34127 ft 544 kts 355°
2026-04-23 19:17 8.03334 -75.49191 34253 ft 543 kts 355°
2026-04-23 19:18 8.07076 -75.49519 34380 ft 543 kts 355°
2026-04-23 19:18 8.10848 -75.49851 34507 ft 543 kts 355°
2026-04-23 19:18 8.14587 -75.50179 34626 ft 543 kts 355°
2026-04-23 19:18 8.18324 -75.50507 34747 ft 542 kts 355°
2026-04-23 19:19 8.25789 -75.51162 34942 ft 542 kts 355°
2026-04-23 19:19 8.29526 -75.51490 34936 ft 542 kts 355°
2026-04-23 19:20 8.40764 -75.52478 34928 ft 543 kts 355°
2026-04-23 19:20 8.48241 -75.53135 34862 ft 543 kts 355°
2026-04-23 19:21 8.59467 -75.54122 34859 ft 544 kts 355°
2026-04-23 19:22 8.66993 -75.54784 34863 ft 546 kts 355°
2026-04-23 19:22 8.78292 -75.55779 34860 ft 547 kts 355°
2026-04-23 19:23 8.85828 -75.56443 34860 ft 547 kts 355°
2026-04-23 19:24 8.97158 -75.57441 34861 ft 547 kts 355°
2026-04-23 19:24 9.08462 -75.58438 34879 ft 547 kts 355°
2026-04-23 19:25 9.23556 -75.59769 34884 ft 548 kts 355°
2026-04-23 19:26 9.34873 -75.60769 34884 ft 548 kts 355°
2026-04-23 19:27 9.53774 -75.62439 34885 ft 548 kts 355°